Location: Unspecified
(41.5516°N, 88.1098°W)
Time: 14:56:52
(UTC-05:00)

HST - Visible Passes

Search period start: 21 October 2014 00:00
Search period end: 31 October 2014 00:00
Orbit: 546 x 550 km, 28.5° (Epoch: 20 October)

Date Brightness Start Highest point End Pass type
(mag) Time Alt. Az. Time Alt. Az. Time Alt. Az.
26 Oct 3.3 19:43:00 10° S 19:43:53 11° S 19:43:53 11° S visible
27 Oct 3.1 19:34:58 10° SSW 19:36:35 12° S 19:37:02 12° SSE visible
28 Oct 3.1 19:27:13 10° SSW 19:29:08 13° S 19:30:09 12° SSE visible
29 Oct 3.1 19:19:37 10° SSW 19:21:40 13° S 19:23:15 11° SSE visible
30 Oct 3.2 19:12:07 10° SSW 19:14:12 14° S 19:16:18 10° SSE visible
